Regional Weather Roundup
Issued by NWS

Home | Current Version | Previous Version | Text Only | Print | Product List | Glossary Off
Versions: 1 2 3 4 5 6 7 8 9 10 11 12 13 14 15 16 17 18 19 20 21 22 23 24 25 26 27 28 29 30 31 32 33 34 35 36 37 38 39 40 41 42 43 44 45 46 47 48 49 50

551
ASUS43 KLMK 250310
RWRKY
KENTUCKY REGIONAL WEATHER ROUNDUP
NATIONAL WEATHER SERVICE LOUISVILLE KY
1100 PM EDT WED AUG 24 2016

NOTE "FAIR" INDICATES FEW OR NO CLOUDS BELOW 12,000 FEET
WITH NO SIGNIFICANT WEATHER AND/OR OBSTRUCTIONS TO VISIBILITY.

KYZ001>023-026-027-061>063-070>075-250400-
WESTERN AND SOUTH CENTRAL KENTUCKY

CITY           SKY/WX    TMP DP  RH WIND       PRES   REMARKS
PADUCAH        CLEAR     78  73  84 S6        30.08S
HENDERSON      CLEAR     79  73  83 S5        30.05F
OWENSBORO      CLEAR     80  77  91 S7        30.08F
HOPKINSVILLE   CLEAR     82  75  78 S7        30.11S
BOWLING GREEN  CLEAR     81  73  76 S5        30.13R
GLASGOW        CLEAR     76  76 100 CALM      30.14S
$$

KYZ024-025-028>034-038-045-046-053-250400-
NORTH CENTRAL KENTUCKY

CITY           SKY/WX    TMP DP  RH WIND       PRES   REMARKS
LOUISVILLE/SDF PTCLDY    83  73  72 S8        30.08F
LOUISVILLE/LOU CLEAR     82  73  74 S6        30.09S
FORT KNOX      CLEAR     78  74  88 S7        30.09S
$$

KYZ035>037-039>044-047>052-055>060-089>105-250400-
NORTHEAST KENTUCKY

CITY           SKY/WX    TMP DP  RH WIND       PRES   REMARKS
LEXINGTON      CLEAR     79  71  76 S9        30.13S
COVINGTON      CLOUDY    80  73  79 SW8       30.08S
FRANKFORT      CLEAR     79  71  76 S8        30.10F
$$

KYZ054-064>069-076>088-106>120-250400-
SOUTHEAST KENTUCKY

CITY           SKY/WX    TMP DP  RH WIND       PRES   REMARKS
JACKSON        PTCLDY    76  71  85 CALM      30.17S
LONDON         CLEAR     75  70  84 CALM      30.18S
SOMERSET       CLEAR     72  72 100 CALM      30.17F
MIDDLESBORO    CLEAR     73  71  95 CALM      30.21S
MONTICELLO     CLEAR    N/A N/A N/A NE5       30.18F
$$





USA.gov is the U.S. government's official web portal to all federal, state and local government web resources and services.